OneWeb SL0015

operational
NORAD ID: 61594 Int'l Des: 2024-188 Owner: ONEWEBE Country: UK Constellation: oneweb
LEOCIRCULARPOLARONEWEB_TYPE

OneWeb SL0015について

説明を読み込み中...

リアルタイム位置

3D地球を読み込み中...

次回通過

高度履歴

Altitude vs Time

uPlot chart will show altitude changes over time

軌道要素

1 61594U 24188A 26033.79826286 .00000502 00000-0 13795-2 0 9994
2 61594 87.8812 47.8389 0002247 78.9881 281.1500 13.11416204 66840
Epoch: Feb 2, 2026 • Age: 20 hours

現在のステータス

高度 1246.3 km
速度 7.23 km/s
衛星直下点 -73.02°S, 120.53°W
打ち上げ日 Oct 20, 2024
運用期間 1.2 years
タイプ internet

技術仕様

分類 Payload
質量 148.00 kg
乾燥質量 140.00 kg
総質量 148.00 kg
長さ 1.30 m
直径 1.00 m
スパン 5.00 m
形状 Trapezoid+2 pan
製造者 ONEWUS
バスタイプ ARROW
フェーズステータス In Orbit
所有者/国 ONEWEBE/UK

大規模コンステレーション

Loading constellations...